When you browse on this site, cookies collect data to enhance your experience and personalize the content and advertising you see.
Visit our Privacy Policy to learn more. By continuing to use the site, you agree to this use of cookies and data.
  • In Lithuania
  • List of Countries
  • For 7 days
  • Water Temperature
  • Satellite Maps
  • Weather Map
  • Weather Widgets
  • user-avatar
    Login

    Hourly Weather Stepanakert

    Today, 17 January, Thursday

    Time Temperature Precipitation Wind Pressure Humidity
    00:00 +5°C° 0 mm 2 mps 683 mmHg 40%
    01:00 +5°C° 0 mm 2 mps 683 mmHg 40%
    02:00 +6°C° 0 mm 1 mps 683 mmHg 40%
    03:00 +7°C° 0 mm 1 mps 682 mmHg 27%
    04:00 +6°C° 0.2 mm 1 mps 682 mmHg 36%
    05:00 +6°C° 0.2 mm 1 mps 682 mmHg 45%
    06:00 +5°C° 0.2 mm 1 mps 682 mmHg 54%
    07:00 +5°C° 0.3 mm 1 mps 683 mmHg 60%
    08:00 +4°C° 0.3 mm 1 mps 683 mmHg 67%
    09:00 +5°C° 0 mm 1 mps 682 mmHg 65%
    10:00 +5°C° 0.2 mm 1 mps 682 mmHg 68%
    11:00 +4°C° 0.2 mm 2 mps 682 mmHg 71%
    12:00 +4°C° 0.2 mm 2 mps 683 mmHg 74%
    13:00 +3°C° 0.7 mm 2 mps 683 mmHg 78%
    14:00 +3°C° 0.7 mm 2 mps 683 mmHg 82%
    15:00 +3°C° 0.7 mm 2 mps 683 mmHg 86%
    16:00 +2°C° 0.6 mm 2 mps 684 mmHg 88%
    17:00 +3°C° 0.6 mm 1 mps 685 mmHg 90%
    18:00 +3°C° 0.6 mm 1 mps 686 mmHg 92%
    19:00 +3°C° 0.4 mm 1 mps 686 mmHg 91%
    20:00 +2°C° 0.4 mm 1 mps 687 mmHg 91%
    21:00 +2°C° 0.4 mm 1 mps 687 mmHg 90%
    22:00 +2°C° 0.4 mm 1 mps 688 mmHg 91%
    23:00 +2°C° 0.4 mm 1 mps 688 mmHg 92%

    Tomorrow, 18 January, Friday

    Time Temperature Precipitation Wind Pressure Humidity
    00:00 +2°C° 0.4 mm 1 mps 689 mmHg 92%
    01:00 +2°C° 0.4 mm 1 mps 690 mmHg 93%
    02:00 +2°C° 0.4 mm 1 mps 690 mmHg 93%
    03:00 +1°C° 0.4 mm 0 mps 690 mmHg 93%
    04:00 0°C° 0.3 mm 0 mps 691 mmHg 93%
    05:00 0°C° 0.3 mm 0 mps 691 mmHg 93%
    06:00 0°C° 0.3 mm 0 mps 692 mmHg 93%
    07:00 0°C° 0.3 mm 0 mps 692 mmHg 92%
    08:00 +1°C° 0.3 mm 0 mps 693 mmHg 90%
    09:00 +2°C° 0.3 mm 1 mps 693 mmHg 88%
    10:00 +2°C° 0.1 mm 1 mps 693 mmHg 85%
    11:00 +3°C° 0.1 mm 1 mps 693 mmHg 82%
    12:00 +3°C° 0.1 mm 2 mps 694 mmHg 80%
    13:00 +3°C° 0.1 mm 2 mps 694 mmHg 79%
    14:00 +3°C° 0.1 mm 2 mps 693 mmHg 79%
    15:00 +3°C° 0.1 mm 2 mps 693 mmHg 79%
    16:00 +3°C° 0 mm 1 mps 694 mmHg 81%
    17:00 +2°C° 0 mm 1 mps 694 mmHg 83%
    18:00 +2°C° 0 mm 1 mps 694 mmHg 86%
    19:00 +1°C° 0 mm 1 mps 695 mmHg 85%
    20:00 +1°C° 0 mm 1 mps 695 mmHg 84%
    21:00 0°C° 0 mm 1 mps 695 mmHg 83%
    22:00 0°C° 0 mm 1 mps 695 mmHg 80%
    23:00 0°C° 0 mm 1 mps 695 mmHg 77%

    Day after tomorrow, 19 January, Saturday

    Time Temperature Precipitation Wind Pressure Humidity
    00:00 0°C° 0 mm 1 mps 695 mmHg 73%
    01:00 0°C° 0 mm 1 mps 695 mmHg 71%
    02:00 0°C° 0 mm 1 mps 695 mmHg 68%
    03:00 -1°C° 0 mm 1 mps 695 mmHg 65%
    04:00 -1°C° 0 mm 1 mps 695 mmHg 63%
    05:00 -1°C° 0 mm 1 mps 694 mmHg 62%
    06:00 -1°C° 0 mm 1 mps 694 mmHg 60%
    07:00 0°C° 0 mm 1 mps 695 mmHg 59%
    08:00 +1°C° 0 mm 1 mps 695 mmHg 58%
    09:00 +2°C° 0 mm 1 mps 695 mmHg 57%
    10:00 +3°C° 0 mm 1 mps 695 mmHg 57%
    11:00 +4°C° 0 mm 1 mps 695 mmHg 57%
    12:00 +5°C° 0 mm 1 mps 694 mmHg 57%
    13:00 +6°C° 0 mm 1 mps 694 mmHg 58%
    14:00 +6°C° 0 mm 1 mps 694 mmHg 59%
    15:00 +6°C° 0 mm 1 mps 693 mmHg 60%
    16:00 +4°C° 0 mm 1 mps 693 mmHg 61%
    17:00 +3°C° 0 mm 1 mps 693 mmHg 63%
    18:00 +2°C° 0 mm 1 mps 693 mmHg 65%
    19:00 +2°C° 0 mm 1 mps 694 mmHg 63%
    20:00 +2°C° 0 mm 1 mps 694 mmHg 61%
    21:00 -1°C° 0 mm 2 mps 694 mmHg 59%
    22:00 -1°C° 0 mm 2 mps 694 mmHg 57%
    23:00 -1°C° 0 mm 2 mps 694 mmHg 55%

    20 January, Sunday

    Time Temperature Precipitation Wind Pressure Humidity
    00:00 -1°C° 0 mm 2 mps 694 mmHg 53%
    01:00 -1°C° 0 mm 2 mps 694 mmHg 52%
    02:00 -1°C° 0 mm 2 mps 694 mmHg 51%
    03:00 -1°C° 0 mm 2 mps 694 mmHg 50%
    04:00 -1°C° 0 mm 2 mps 694 mmHg 49%
    05:00 -2°C° 0 mm 2 mps 694 mmHg 48%
    06:00 -2°C° 0 mm 2 mps 694 mmHg 47%
    07:00 -1°C° 0 mm 2 mps 695 mmHg 47%
    08:00 +2°C° 0 mm 1 mps 695 mmHg 47%
    09:00 +3°C° 0 mm 1 mps 695 mmHg 48%
    10:00 +4°C° 0 mm 1 mps 695 mmHg 49%
    11:00 +5°C° 0 mm 1 mps 695 mmHg 50%
    12:00 +6°C° 0 mm 1 mps 695 mmHg 51%
    13:00 +6°C° 0 mm 1 mps 694 mmHg 51%
    14:00 +6°C° 0 mm 1 mps 694 mmHg 52%
    15:00 +6°C° 0 mm 1 mps 694 mmHg 52%
    16:00 +5°C° 0 mm 1 mps 694 mmHg 54%
    17:00 +3°C° 0 mm 1 mps 694 mmHg 57%
    18:00 +2°C° 0 mm 1 mps 694 mmHg 60%
    19:00 +2°C° 0 mm 1 mps 695 mmHg 59%
    20:00 +1°C° 0 mm 1 mps 695 mmHg 57%
    21:00 -1°C° 0 mm 2 mps 695 mmHg 56%
    22:00 -1°C° 0 mm 2 mps 695 mmHg 56%
    23:00 -1°C° 0 mm 2 mps 695 mmHg 55%

    21 January, Monday

    Time Temperature Precipitation Wind Pressure Humidity
    00:00 -1°C° 0 mm 2 mps 695 mmHg 54%
    01:00 -1°C° 0 mm 2 mps 695 mmHg 54%
    02:00 -1°C° 0 mm 2 mps 695 mmHg 54%
    03:00 0°C° 0 mm 1 mps 695 mmHg 54%
    04:00 0°C° 0 mm 1 mps 695 mmHg 54%
    05:00 0°C° 0 mm 1 mps 695 mmHg 54%
    06:00 0°C° 0 mm 1 mps 695 mmHg 54%
    07:00 +1°C° 0 mm 1 mps 696 mmHg 53%
    08:00 +2°C° 0 mm 1 mps 696 mmHg 53%
    09:00 +2°C° 0 mm 1 mps 696 mmHg 52%
    10:00 +3°C° 0 mm 1 mps 696 mmHg 51%
    11:00 +4°C° 0 mm 1 mps 695 mmHg 50%
    12:00 +5°C° 0 mm 1 mps 695 mmHg 48%
    13:00 +5°C° 0 mm 1 mps 695 mmHg 49%
    14:00 +5°C° 0 mm 1 mps 694 mmHg 51%
    15:00 +5°C° 0 mm 1 mps 694 mmHg 52%
    16:00 +4°C° 0 mm 1 mps 694 mmHg 55%
    17:00 +2°C° 0 mm 1 mps 694 mmHg 58%
    18:00 0°C° 0 mm 0 mps 694 mmHg 61%
    19:00 +1°C° 0 mm 1 mps 694 mmHg 59%
    20:00 0°C° 0 mm 1 mps 694 mmHg 58%
    21:00 0°C° 0 mm 1 mps 694 mmHg 56%
    22:00 0°C° 0 mm 1 mps 694 mmHg 54%
    23:00 -2°C° 0 mm 2 mps 693 mmHg 52%

    22 January, Tuesday

    Time Temperature Precipitation Wind Pressure Humidity
    00:00 -2°C° 0 mm 2 mps 693 mmHg 50%
    01:00 -2°C° 0 mm 2 mps 693 mmHg 48%
    02:00 -2°C° 0 mm 2 mps 693 mmHg 47%
    03:00 -2°C° 0 mm 2 mps 693 mmHg 45%
    04:00 -2°C° 0 mm 2 mps 693 mmHg 44%
    05:00 -2°C° 0 mm 2 mps 693 mmHg 44%
    06:00 -2°C° 0 mm 2 mps 693 mmHg 43%
    07:00 -1°C° 0 mm 2 mps 693 mmHg 43%
    08:00 +1°C° 0 mm 2 mps 693 mmHg 43%
    09:00 +2°C° 0 mm 2 mps 694 mmHg 43%
    10:00 +4°C° 0 mm 1 mps 693 mmHg 44%
    11:00 +6°C° 0 mm 1 mps 693 mmHg 46%
    12:00 +7°C° 0 mm 1 mps 693 mmHg 47%
    13:00 +7°C° 0 mm 1 mps 693 mmHg 45%
    14:00 +7°C° 0 mm 1 mps 693 mmHg 44%
    15:00 +8°C° 0 mm 1 mps 693 mmHg 42%
    16:00 +6°C° 0 mm 1 mps 693 mmHg 44%
    17:00 +5°C° 0 mm 1 mps 694 mmHg 46%
    18:00 +3°C° 0 mm 1 mps 694 mmHg 48%
    19:00 +3°C° 0 mm 1 mps 694 mmHg 48%
    20:00 +3°C° 0 mm 1 mps 694 mmHg 49%
    21:00 +3°C° 0 mm 1 mps 695 mmHg 49%
    22:00 +1°C° 0 mm 2 mps 695 mmHg 48%
    23:00 +1°C° 0 mm 2 mps 695 mmHg 48%
    Show more